Location: Aigremont
(48.9045°N, 2.0192°E)
Time: 17:26:42
(UTC+00:00)

Daily predictions for brighter satellites

Satellite Brightness Start Highest point End
(mag) Time Altitude Azimuth Time Altitude Azimuth Time Altitude Azimuth
AQUARIUS 4.2 17:13:53 10° SSE 17:18:23 85° ENE 17:22:53 10° NNW
Cosmos 1607 4.3 17:12:47 10° S 17:18:37 48° ESE 17:24:31 10° NE
Meteor PRIRODA 3.5 17:16:00 10° SSE 17:19:29 62° ENE 17:23:00 10° N
NOSS 3-4 (A) 4.5 17:13:39 10° NW 17:20:30 65° SW 17:28:19 10° SSE
NOSS 3-4 (C) 4.5 17:13:45 10° NW 17:20:37 65° SW 17:28:25 10° SSE
Cosmos 1025 Rocket 3.2 17:16:36 10° SSW 17:20:52 80° W 17:25:11 10° N
YAOGAN 1 3.9 17:20:26 10° ESE 17:23:29 19° ENE 17:26:31 10° NNE
SL-4 R/B 1.6 17:21:01 10° WSW 17:24:28 82° SSE 17:28:06 10° ENE
Cosmos 2322 Rocket 3.8 17:22:19 10° SE 17:25:06 14° E 17:27:54 10° ENE
COBE Rocket 3.9 17:21:38 10° SSE 17:26:24 84° WSW 17:31:07 10° NNW
Cosmos 2227 Rocket 4.3 17:22:11 10° NW 17:27:11 33° WSW 17:32:09 10° SSW
Landsat 4 4.2 17:24:20 10° S 17:27:55 64° WSW 17:31:34 10° NNW
Cosmos 1975 Rocket 3.4 17:24:33 10° SSW 17:29:01 72° W 17:33:28 10° N
Cosmos 1892 4.2 17:28:42 10° SE 17:31:08 17° E 17:33:34 10° NE
ATLAS CENTAUR R/B 1.9 17:26:38 10° SSW 17:31:14 54° ESE 17:35:42 10° NE
NOSS 2-1 (E) 3.9 17:28:06 10° NW 17:32:23 86° NE 17:38:23 10° SE
Cosmos 1703 3.1 17:28:41 10° S 17:32:30 81° E 17:36:20 10° NNE
Cosmos 1536 Rocket 4.1 17:29:01 10° SSE 17:32:59 36° E 17:36:57 10° NNE
Cosmos 407 Rocket 4.0 17:28:33 10° S 17:33:20 40° ESE 17:38:06 10° NE
Cosmos 1340 Rocket 3.3 17:31:31 10° SSE 17:35:05 38° E 17:38:44 10° NNE
SL-16 R/B 3.2 17:32:36 10° SSE 17:37:07 25° ESE 17:41:41 10° NE
ARGOS 4.4 17:37:57 10° S 17:43:06 47° W 17:48:17 10° NNW
Cosmos 1606 Rocket 4.4 17:41:18 10° NNE 17:45:01 27° ENE 17:48:43 10° SE
Lacrosse 5 3.4 17:43:47 10° SSE 17:47:15 19° ESE 17:49:50 13° E
Cosmos 2369 3.8 17:43:07 10° SSW 17:48:47 80° WNW 17:54:31 10° NNE
BlueWalker 3 2.0 17:45:40 10° WSW 17:49:32 74° NNW 17:52:39 15° ENE
Cosmos 1140 Rocket 3.5 17:45:16 10° S 17:50:23 65° ESE 17:55:31 10° NNE
Cosmos 1655 Rocket 4.0 17:45:13 10° N 17:51:32 79° E 17:57:45 10° SSE
Cosmos 1825 3.6 17:49:15 10° SE 17:51:45 17° E 17:52:39 16° ENE
Cosmos 1408 2.8 17:49:11 10° SSE 17:52:23 40° E 17:55:37 10° NNE
NOAA 6 4.3 17:47:17 10° S 17:52:25 73° WSW 17:57:36 10° NNW
Cosmos 1980 Rocket 2.4 17:47:12 10° SSW 17:52:51 76° WNW 17:58:34 10° NNE
Radarsat Rocket 4.3 17:48:02 10° SSE 17:54:02 80° WSW 18:00:41 10° NNW
ATLAS 5 CENTAUR R/B 3.4 17:52:29 10° WNW 17:55:24 20° NNW 17:58:39 10° NNE
COSMO-SKYMED 1 2.6 17:51:38 10° NNE 17:55:57 60° E 18:00:14 10° S
SL-08 R/B 3.7 17:53:05 10° N 17:58:01 71° WNW 18:02:56 10° SSW
Cosmos 1023 Rocket 4.4 17:53:34 10° SSW 17:58:44 79° ESE 18:03:52 10° NNE
USA 281 4.4 17:52:58 10° NNE 17:58:57 39° NW 18:04:56 10° WSW
Cosmos 2228 2.9 17:55:14 10° N 17:59:27 63° ENE 18:03:37 10° SSE
Cosmos 1697 Rocket 4.0 17:54:29 10° WSW 17:59:45 39° NW 18:05:04 10° NNE
MOS 1-B 4.5 18:01:35 10° SE 18:07:09 51° ENE 18:12:45 10° N
Cosmos 2263 Rocket 3.0 18:02:07 10° NW 18:07:32 53° WSW 18:12:55 10° S
CZ-4 R/B 2.1 18:07:25 10° SE 18:11:05 31° ENE 18:14:43 10° N
PSLV R/B 3.6 18:12:50 10° SSE 18:16:25 59° ENE 18:20:05 10° N
Cosmos 1328 3.7 18:13:20 10° S 18:17:20 90° NNW 18:21:19 10° N
Okean O Rocket 2.1 18:14:19 10° SE 18:18:19 36° ENE 18:22:21 10° N
Cosmos 1726 Rocket 3.8 18:14:24 10° N 18:18:33 44° ENE 18:22:39 10° SSE
Meteor 1-11 4.4 18:13:07 10° S 18:18:43 52° E 18:24:20 10° NNE
Lacrosse 5 rocket 2.0 18:17:50 10° NW 18:21:04 30° NNE 18:21:53 27° NE
Cosmos 724 4.3 18:15:16 10° SSW 18:21:11 82° SE 18:26:26 14° NE
Cosmos 1184 Rocket 4.0 18:19:36 10° NNW 18:21:47 31° W 18:23:55 10° SSW
ISS -3.3 18:18:29 10° WNW 18:21:49 59° SSW 18:23:39 24° SE
Cosmos 468 Rocket 4.0 18:16:43 10° NNW 18:21:49 53° ENE 18:26:50 10° SE
RESURS DK-1 3.1 18:21:47 10° NNW 18:25:30 31° NE 18:25:55 31° ENE
Cosmos 1954 Rocket 4.1 18:24:05 10° S 18:29:10 52° ESE 18:32:56 18° NE
Cosmos 1553 Rocket 4.2 18:26:12 10° SSE 18:31:54 44° E 18:37:40 10° NNE
CZ-4C R/B 3.7 18:30:05 10° N 18:34:00 63° WNW 18:37:41 10° SSW
IRIDIUM 104 4.4 18:29:32 10° N 18:34:38 50° E 18:39:41 10° SSE
COSMOS 2455 3.7 18:29:11 10° WSW 18:34:58 46° NW 18:40:48 10° NNE
Cosmos 2251 Rocket 4.4 18:29:47 10° SW 18:34:59 50° WNW 18:40:15 10° NNE
CZ-4B R/B 3.0 18:31:50 10° SSE 18:37:09 77° ENE 18:42:36 10° NNW
SL-08 R/B 4.5 18:32:12 10° N 18:38:22 58° ENE 18:44:32 10° SSE
USA 290 4.2 18:35:52 10° WSW 18:38:42 28° WNW 18:41:24 11° N
Cosmos 1844 Rocket 2.6 18:33:52 10° NNW 18:39:27 67° ENE 18:43:47 17° SE
IRIDIUM 114 4.3 18:38:37 10° N 18:43:48 60° E 18:48:57 10° SSE
Cosmos 1763 Rocket 3.4 18:39:01 10° NNW 18:44:16 86° WSW 18:49:23 10° SSE
Cosmos 1844 3.7 18:39:58 10° NNW 18:45:46 65° ENE 18:49:24 23° SE
Feng Yun 1-1 Rocket 4.2 18:40:27 10° SSE 18:45:57 62° ENE 18:51:22 10° N
Spot 1 4.4 18:47:34 42° SE 18:47:34 42° SE 18:50:48 10° S
Cosmos 2058 Rocket 3.1 18:43:42 10° N 18:47:59 50° ENE 18:48:17 49° E
Cosmos 2278 4.3 18:44:31 10° SW 18:50:07 57° WNW 18:55:39 10° NNE
IRIDIUM 103 4.2 18:47:45 10° N 18:52:59 71° E 18:58:11 10° S
MINOTAUR 4 R/B 3.8 18:53:03 80° NNE 18:53:14 90° WNW 18:56:39 10° SSW
Cosmos 841 Rocket 3.7 18:48:47 10° NNW 18:53:56 49° ENE 18:54:41 46° E
ATLAS 2AS CENTAUR R/B 2.8 18:48:28 10° NW 18:55:31 75° SW 19:01:41 12° SSE
Cosmos 2333 Rocket 3.2 18:51:08 10° SSE 18:54:33 28° SE 18:54:33 28° SE
Cosmos 2360 Rocket 2.3 18:52:48 10° S 18:58:13 50° ESE 18:59:03 46° E
YAOGAN 1 3.2 18:54:56 10° S 18:59:10 55° W 19:03:26 10° NNW
Cosmos 2219 Rocket 4.3 18:56:02 10° SSE 18:56:22 11° SSE 18:56:22 11° SSE
Cosmos 2278 Rocket 3.8 18:58:17 10° N 19:01:28 19° NNE 19:01:28 19° NNE
SL-4 R/B 2.2 19:00:25 10° W 19:03:34 51° NNW 19:03:34 51° NNW
S3M 4.2 18:59:18 10° SSE 19:05:23 49° E 19:11:29 10° NNE
Cosmos 1892 3.9 19:02:41 10° SSW 19:06:12 40° WNW 19:09:46 10° N
Cosmos 540 Rocket 3.4 19:02:02 10° NNW 19:07:13 85° WSW 19:10:11 26° SSE
Cosmos 2322 Rocket 2.0 19:02:38 10° SSW 19:08:15 83° ESE 19:10:37 37° NNE
ATLAS CENTAUR R/B 3.2 19:05:51 10° W 19:10:01 31° NW 19:12:01 22° N
Cosmos 676 Rocket 4.0 19:05:38 10° SSW 19:10:57 83° WNW 19:13:41 29° NNE
IRIDIUM 106 4.3 19:06:03 10° N 19:11:18 83° W 19:16:31 10° S
Cosmos 1461 3.8 19:12:16 10° SSW 19:15:09 41° S 19:15:09 41° S
SL-16 R/B 2.6 19:15:12 10° SW 19:20:48 61° WNW 19:24:12 24° NNE
Meteor 1-27 4.5 19:20:12 10° NNW 19:25:59 69° W 19:31:40 10° S
Cosmos 1825 3.5 19:23:11 10° SW 19:26:38 37° WNW 19:27:13 35° NW
Gblst 52 Del rocket 3.9 19:22:45 10° WSW 19:28:19 89° SSE 19:28:33 83° ENE
BlueWalker 3 3.4 19:24:48 10° WNW 19:27:27 34° NW 19:27:27 34° NW
Lacrosse 5 1.9 19:24:27 10° SW 19:29:05 71° SSW 19:29:05 71° SSW
CSL-04 Debris 4.0 19:29:17 66° SSE 19:30:06 89° E 19:35:33 10° NNW
Cosmos 1892 Rocket 4.4 19:29:53 10° SSW 19:34:12 50° WNW 19:35:28 38° NNW
Cosmos 1980 Rocket 4.5 19:33:53 10° W 19:37:52 19° NW 19:41:52 10° N
CSL-04 Rocket 3.6 19:39:31 79° NW 19:39:31 79° NW 19:44:37 10° NNW
ATLAS 5 CENTAUR R/B 4.1 19:39:18 10° NNW 19:40:52 13° N 19:40:52 13° N
BREEZE-M DEB (TANK) 3.6 19:35:13 10° WSW 19:45:22 57° S 19:45:22 57° S
CZ-4 R/B 3.4 19:42:23 10° SSW 19:45:58 28° W 19:49:32 10° NW
Cosmos 1745 Rocket 4.2 19:45:08 10° NNW 19:51:22 67° W 19:55:06 25° S
Okean O Rocket 3.6 19:50:58 10° SSW 19:54:42 27° W 19:58:30 10° NW
Cosmos 1943 Rocket 4.3 19:52:34 10° N 19:53:56 15° N 19:53:56 15° N
BREEZE-M DEB (TANK) 3.9 19:53:00 10° W 19:57:15 60° S 19:57:31 59° S
ISS -0.3 19:56:31 10° WSW 19:56:34 10° WSW 19:56:34 10° WSW
Lacrosse 5 rocket 3.9 19:56:34 10° WNW 19:57:18 15° WNW 19:57:18 15° WNW
Cosmos 1709 Rocket 4.4 20:04:11 10° NNW 20:08:56 54° NNW 20:08:56 54° NNW
Cosmos 2333 Rocket 4.2 20:34:43 10° SW 20:36:39 21° WSW 20:36:39 21° WSW
Cosmos 2360 Rocket 3.9 20:37:19 10° WSW 20:40:54 29° W 20:40:54 29° W
Cosmos 2278 Rocket 4.3 20:41:43 10° NNW 20:43:19 20° NNW 20:43:19 20° NNW
Cosmos 2322 Rocket 4.2 20:48:36 10° W 20:52:29 23° NW 20:52:29 23° NW
